Location: Newark
(25.1987°N, 100.3705°W)
Time: 05:04:08
(UTC+00:00)

LightSail 2 - Pass Details

Date: 17 April 2020
Orbit: 695 x 719 km, 24.0° (Epoch: 28 May)

Event Time Altitude Azimuth Distance (km) Brightness Sun altitude
Exits shadow 11:05:09 26° 231° (SW) 1,355 6.0 -16.4°
Maximum altitude 11:06:38 31° 200° (SSW) 1,216 6.0 -16.0°
Drops below altitude 10° 11:11:05 10° 138° (SE) 2,148 7.9 -15.1°
Sets 11:13:43 0° 128° (SE) 3,060 8.9 -14.5°
